Terug naar catalogus

LAPAN-TUBSAT

ActiefWetenschapSSO
NORAD 29709·PAYLOAD·🇮🇩 Indonesia

Gelanceerd Jan 10, 2007 vanaf Satish Dhawan Space Centre

Loading…

Volgende Passages (komende 24 uur)

TLE

VersSource: Space-Track

Epoch: Sep 14, 2026, 14:37 UTC

1 29709U 07001A   26257.60939323 -.00000254  00000-0 -22439-4 0  9999
2 29709  98.1397 258.8807 0010780 254.2179 105.7847 14.86023679 64435

Volg LAPAN-TUBSAT in realtime met AllMySat

Download on the App Store